Date String (YYYY-MM-DD hh:mm:ss) UTC,Instrument flags,Ambient pressure (hPa),Sample flow (lpm),Bypass flow (lpm),Sample temperature (°C),Ambient temperature (°C),ASC tube jacket temperature (°C),LED temperature (°C),Box temperature (°C),Sample RH (%),Span deviation,Mass concentration (μg/m³),Mass concentration (μg/m³),Mass concentration (μg/m³)
DateTimeUTC,F1_M11,P_M11,Q1_M11,Q2_M11,T1_M11,T2_M11,T3_M11,T4_M11,T5_M11,U1_M11,ZSPAN_M11,X0_M11,X2_M11,X1_M11
2022-02-23 23:00:00,,0821.8,5.00,0.00,23.2,22.9,00.0,32.1,25.1,03.1,0000.2,0008.62,0005.53,0005.16
2022-02-23 23:01:00,,0821.8,5.00,0.00,23.2,22.7,00.0,32.1,25.0,03.1,0000.7,0008.60,0005.53,0005.17
2022-02-23 23:02:00,,0821.8,5.01,0.00,23.2,22.6,00.0,32.1,25.0,03.1,0000.3,0008.65,0005.54,0005.18
2022-02-23 23:03:00,,0822.0,5.00,0.00,23.2,22.5,00.0,32.1,25.0,03.1,0000.1,0008.66,0005.53,0005.18
2022-02-23 23:04:00,,0822.0,5.00,0.00,23.1,22.5,00.0,32.1,24.9,03.0,0000.3,0008.80,0005.58,0005.21
2022-02-23 23:05:00,,0822.0,4.99,0.00,23.1,22.4,00.0,32.1,24.9,03.0,0000.1,0008.91,0005.64,0005.25
2022-02-23 23:06:00,,0821.9,5.01,0.00,23.1,22.3,00.0,32.1,24.9,03.0,-000.2,0008.90,0005.67,0005.29
2022-02-23 23:07:00,,0821.8,4.99,0.00,23.1,22.2,00.0,32.0,24.9,03.0,-000.4,0008.84,0005.67,0005.32
2022-02-23 23:08:00,,0821.6,4.99,0.00,23.1,22.2,00.0,32.0,24.8,03.0,-000.1,0008.82,0005.67,0005.33
2022-02-23 23:09:00,,0821.7,4.99,0.00,23.0,22.1,00.0,32.0,24.8,03.1,-000.4,0008.80,0005.67,0005.34
2022-02-23 23:10:00,,0821.7,5.02,0.00,23.0,22.1,00.0,32.0,24.8,03.1,-000.7,0008.73,0005.66,0005.35
2022-02-23 23:11:00,,0821.7,5.00,0.00,23.0,22.1,00.0,32.0,24.8,03.2,-000.2,0008.36,0005.66,0005.33
2022-02-23 23:12:00,,0821.8,4.99,0.00,23.0,22.0,00.0,32.0,24.7,03.2,0000.0,0008.37,0005.65,0005.30
2022-02-23 23:13:00,,0821.8,5.01,0.00,22.9,22.0,00.0,32.0,24.7,03.2,0000.0,0008.37,0005.63,0005.29
2022-02-23 23:14:00,,0821.7,5.00,0.00,22.9,22.0,00.0,32.0,24.7,03.1,0000.0,0008.32,0005.61,0005.28
2022-02-23 23:15:00,,0821.7,4.99,0.00,22.9,22.0,00.0,31.9,24.7,03.1,0000.0,0008.34,0005.58,0005.23
2022-02-23 23:16:00,,0821.7,4.99,0.00,22.9,21.9,00.0,31.9,24.6,03.2,0000.0,0008.19,0005.51,0005.19
2022-02-23 23:17:00,,0821.9,5.01,0.00,22.9,21.9,00.0,31.9,24.6,03.2,0000.0,0008.08,0005.43,0005.12
2022-02-23 23:18:00,,0821.8,5.01,0.00,22.9,22.1,00.0,31.9,24.6,03.2,0000.0,0008.10,0005.41,0005.09
2022-02-23 23:19:00,,0821.8,4.98,0.00,23.0,22.8,00.0,32.0,24.8,03.2,0000.0,0008.20,0005.39,0005.05
2022-02-23 23:20:00,,0821.8,5.01,0.00,23.1,23.4,00.0,32.0,25.0,03.2,0000.0,0008.29,0005.39,0005.04
2022-02-23 23:21:00,,0822.1,4.99,0.00,23.2,23.4,00.0,32.0,25.1,03.1,0000.0,0008.45,0005.44,0005.05
2022-02-23 23:22:00,,0821.9,5.00,0.00,23.2,23.2,00.0,32.0,25.1,03.1,0000.0,0008.46,0005.45,0005.07
2022-02-23 23:23:00,,0821.9,5.00,0.00,23.2,23.0,00.0,32.0,25.1,03.1,0000.0,0008.48,0005.46,0005.08
2022-02-23 23:24:00,,0822.0,4.99,0.00,23.2,22.8,00.0,32.0,25.0,03.1,0000.0,0008.47,0005.46,0005.09
2022-02-23 23:25:00,,0822.0,5.00,0.00,23.1,22.7,00.0,32.0,25.0,03.1,0000.0,0008.49,0005.48,0005.10
2022-02-23 23:26:00,,0822.0,5.01,0.00,23.1,22.6,00.0,32.0,24.9,03.0,0000.0,0008.33,0005.47,0005.13
2022-02-23 23:27:00,,0822.1,5.00,0.00,23.1,22.5,00.0,32.0,24.9,03.0,0000.0,0008.44,0005.52,0005.16
2022-02-23 23:28:00,,0822.1,5.01,0.00,23.1,22.4,00.0,32.0,24.9,03.0,-001.0,0008.55,0005.58,0005.21
2022-02-23 23:29:00,,0822.1,4.99,0.00,23.1,22.3,00.0,32.0,24.8,03.0,-000.6,0008.58,0005.61,0005.24
2022-02-23 23:30:00,,0822.1,4.99,0.00,23.0,22.2,00.0,32.0,24.8,03.0,0000.1,0008.55,0005.66,0005.30
2022-02-23 23:31:00,,0822.1,5.01,0.00,23.0,22.2,00.0,32.0,24.8,03.0,0000.6,0008.46,0005.68,0005.33
2022-02-23 23:32:00,,0822.1,4.99,0.00,23.0,22.1,00.0,32.0,24.8,03.0,0001.2,0008.33,0005.67,0005.36
2022-02-23 23:33:00,,0822.1,5.00,0.00,23.0,22.1,00.0,32.0,24.7,03.1,0000.9,0008.30,0005.69,0005.40
2022-02-23 23:34:00,,0822.1,5.01,0.00,22.9,22.0,00.0,31.9,24.7,03.1,0001.2,0008.50,0005.73,0005.45
2022-02-23 23:35:00,,0822.1,5.00,0.00,22.9,22.0,00.0,31.9,24.7,03.1,0001.2,0008.79,0005.75,0005.47
2022-02-23 23:36:00,,0822.0,4.99,0.00,22.9,21.9,00.0,31.9,24.7,03.1,0002.1,0008.80,0005.77,0005.49
2022-02-23 23:37:00,,0822.0,4.99,0.00,22.9,21.9,00.0,31.9,24.6,03.1,0000.9,0008.84,0005.79,0005.52
2022-02-23 23:38:00,,0821.9,5.00,0.00,22.8,21.9,00.0,31.9,24.6,03.1,0000.2,0008.83,0005.80,0005.52
2022-02-23 23:39:00,,0822.0,5.00,0.00,22.8,21.8,00.0,31.9,24.6,03.2,0000.1,0008.81,0005.80,0005.51
2022-02-23 23:40:00,,0822.1,5.00,0.00,22.8,22.1,00.0,31.9,24.6,03.2,-000.1,0008.82,0005.79,0005.50
2022-02-23 23:41:00,,0822.1,5.00,0.00,22.9,22.8,00.0,31.9,24.8,03.2,-000.1,0008.85,0005.78,0005.48
2022-02-23 23:42:00,,0822.1,4.99,0.00,23.0,23.3,00.0,31.9,25.0,03.2,-000.7,0008.84,0005.77,0005.47
2022-02-23 23:43:00,,0822.1,5.01,0.00,23.1,23.2,00.0,31.9,25.0,03.2,-001.1,0008.80,0005.75,0005.45
2022-02-23 23:44:00,,0822.2,4.99,0.00,23.1,23.0,00.0,31.9,25.0,03.2,-000.9,0009.13,0005.75,0005.43
2022-02-23 23:45:00,,0822.1,5.00,0.00,23.1,22.8,00.0,32.0,25.0,03.2,-000.8,0009.43,0005.75,0005.43
2022-02-23 23:46:00,,0822.1,5.00,0.00,23.1,22.6,00.0,32.0,24.9,03.2,-000.5,0008.97,0005.75,0005.43
2022-02-23 23:47:00,,0822.1,4.99,0.00,23.1,22.5,00.0,32.0,24.9,03.2,-000.0,0009.04,0005.78,0005.44
2022-02-23 23:48:00,,0822.1,5.00,0.00,23.0,22.4,00.0,31.9,24.8,03.2,0000.1,0009.18,0005.84,0005.46
2022-02-23 23:49:00,,0822.1,5.00,0.00,23.0,22.3,00.0,31.9,24.8,03.2,0000.8,0009.71,0005.88,0005.49
2022-02-23 23:50:00,,0822.1,4.99,0.00,23.0,22.2,00.0,31.9,24.8,03.2,0000.2,0009.83,0005.92,0005.52
2022-02-23 23:51:00,,0822.1,5.00,0.00,22.9,22.1,00.0,31.9,24.7,03.2,0000.5,0009.93,0005.96,0005.55
2022-02-23 23:52:00,,0822.1,4.99,0.00,22.9,22.1,00.0,31.9,24.7,03.2,0000.4,0009.92,0005.98,0005.58
2022-02-23 23:53:00,,0822.1,5.00,0.00,22.9,22.0,00.0,31.9,24.7,03.1,0000.9,0010.00,0006.01,0005.59
2022-02-23 23:54:00,,0822.1,4.99,0.00,22.9,22.0,00.0,31.9,24.6,03.2,0001.2,0010.06,0006.05,0005.62
2022-02-23 23:55:00,,0822.1,5.00,0.00,22.8,21.9,00.0,31.9,24.6,03.2,0000.8,0009.75,0006.08,0005.64
2022-02-23 23:56:00,,0822.2,5.02,0.00,22.8,21.9,00.0,31.8,24.6,03.2,0000.6,0009.42,0006.08,0005.65
2022-02-23 23:57:00,,0822.2,4.99,0.00,22.8,21.9,00.0,31.8,24.6,03.2,0000.4,0009.48,0006.10,0005.66
2022-02-23 23:58:00,,0822.2,5.01,0.00,22.8,21.8,00.0,31.8,24.5,03.3,0000.6,0009.41,0006.08,0005.67
2022-02-23 23:59:00,,0822.1,4.99,0.00,22.8,22.0,00.0,31.8,24.5,03.3,0000.9,0009.31,0006.02,0005.65
